Regional Weather Roundup
Issued by NWS

Home | Current Version | Previous Version | Graphics & Text | Print | Product List | Glossary On
Versions: 1 2 3 4 5 6 7 8 9 10 11 12 13 14 15 16 17 18 19 20 21 22 23 24 25 26 27 28 29 30 31 32 33 34 35 36 37 38 39 40 41 42 43 44 45 46 47 48 49 50
000
ASUS43 KMPX 272101
RWRMN
WEATHER ROUNDUP FOR MINNESOTA
NATIONAL WEATHER SERVICE TWIN CITIES/CHANHASSEN MN
400 PM CDT THU JUL 27 2017


NOTE: "FAIR" INDICATES FEW OR NO CLOUDS BELOW 12,000 FEET WITH NO
SIGNIFICANT WEATHER AND/OR OBSTRUCTIONS TO VISIBILITY. N/A MEANS
CURRENT SKY AND/OR WEATHER CONDITIONS ARE NOT AVAILABLE.

MNZ060>063-068>070-272200-
   Twin Cities Metro

CITY           SKY/WX    TMP DP  RH WIND       PRES   REMARKS
TWIN CITIES    PTSUNNY   83  57  41 N10       30.05F
ST PAUL        FAIR      85  59  41 N12       30.04F
CRYSTAL        PTSUNNY   85  56  37 VRB7      30.04F
BLAINE         PTSUNNY   86  55  35 N9        30.06F
LAKEVILLE      FAIR      79  61  53 NE7       30.05F
EDEN PRAIRIE   PTSUNNY   82  60  47 N12       30.04F
SOUTH ST PAUL  FAIR      84  54  36 N9        30.04F
LAKE ELMO      FAIR      82  61  47 N7        30.06F
$$
MNZ001>005-007-008-013>017-022>024-027-028-272200-
   Northwest Minnesota

CITY           SKY/WX    TMP DP  RH WIND       PRES   REMARKS
BEMIDJI        FAIR      81  55  41 N3        30.10F
HALLOCK        FAIR      84  57  39 NW5       30.07F
ROSEAU         FAIR      82  64  54 W7        30.08S
WARROAD        TSTM      72  66  83 NW7G18    30.11R
CROOKSTON      FAIR      81  57  44 CALM      30.09F
FOSSTON        FAIR      81  59  47 W6        30.11S
DETROIT LAKES  FAIR      79  59  50 CALM      30.12F
MOORHEAD       FAIR      82  55  39 CALM      30.09F
PARK RAPIDS    FAIR      82  54  37 VRB7      30.09F
MAHNOMEN       FAIR      80  60  50 NW7       30.10F
$$
MNZ006-009>011-018-025>026-272200-
   North Central Minnesota

CITY           SKY/WX    TMP DP  RH WIND       PRES   REMARKS
BAUDETTE       FAIR      83  58  42 NW9       30.08F
FLAG ISLAND    FAIR      84  63  48 CALM      30.07F
INTL FALLS     FAIR      81  54  39 CALM      30.07F
WASKISH        PTSUNNY   79  64  61 W8        30.10S
BIG FORK       FAIR      79  61  53 SW5       30.09F
LONGVILLE      FAIR      81  59  47 NE3       30.09F
GRAND RAPIDS   FAIR      79  60  52 W7        30.10F
CRANE LAKE     FAIR      75  55  50 NE6       30.10R
ORR            FAIR      82  52  34 CALM      30.07S
COOK             N/A     81  57  44 CALM      30.09F
WALKER         FAIR      80  55  42 NE5       30.09F
$$
MNZ012-019>021-037-272200-
   Northeast Minnesota

CITY           SKY/WX    TMP DP  RH WIND       PRES   REMARKS
DULUTH         FAIR      75  61  61 SE8       30.09F
ELY            CLOUDY    77  54  44 CALM      30.08S
HIBBING        FAIR      80  50  34 N6        30.08F
EVELETH        FAIR      83  33  16 NE3       30.09F
DULUTH HARBOR  FAIR      70  63  78 NE8       30.09F
SILVER BAY     FAIR      75  57  53 SE3       30.08
GRAND MARAIS     N/A     69  55  60 E5        30.09S
G MARAIS ARPRT PTSUNNY   68  48  49 S3        30.15R
$$
MNZ029>031-032-039>041-046>048-054>057-064-272200-
   West Central Minnesota

CITY           SKY/WX    TMP DP  RH WIND       PRES   REMARKS
FERGUS FALLS   FAIR      81  61  50 CALM      30.07F
WHEATON        FAIR      81  55  41 NE6       30.10F
MORRIS         FAIR      84  57  39 NE3       30.08F
ALEXANDRIA     FAIR      80  59  48 N7        30.11F
ELBOW LAKE     FAIR      79  58  49 NE3       30.10F HAZE
WADENA         FAIR      81  57  44 CALM      30.09F
GLENWOOD       FAIR      82  57  42 N6        30.11F
APPLETON       FAIR      82  57  42 N7        30.08F
BENSON         FAIR      84  57  39 E5        30.10F
ORTONVILLE     FAIR      82  57  42 CALM        N/A
MADISON        FAIR      84  61  45 CALM      30.09F
WILLMAR        FAIR      82  61  47 N6        30.09F
$$
MNZ033>034-036-042>043-049>051-058-059-272200-
   Central Minnesota

CITY           SKY/WX    TMP DP  RH WIND       PRES   REMARKS
ST CLOUD       FAIR      83  59  44 NW5       30.07F
SAUK CENTRE    FAIR      81  56  43 N5        30.10F
PAYNESVILLE    FAIR      83  56  39 N3        30.09F
AITKIN         FAIR      77  61  57 NW6       30.08S
PINE RIVER     FAIR      81  59  47 CALM      30.11F
BRAINERD       FAIR      80  58  46 NW7       30.09F
STAPLES        PTSUNNY   82  54  36 W3        30.09F
LONG PRAIRIE   FAIR      79  59  50 N3        30.10F
LITTLE FALLS   FAIR      79  55  44 CALM      30.09F
LITCHFIELD     FAIR      84  61  45 NW7       30.07F
BUFFALO        PTSUNNY   82  55  40 NE5       30.07F
MAPLE LAKE     FAIR      85  59  40 N3        30.07F
HUTCHINSON     FAIR      83  64  52 NE6       30.08F
$$
MNZ037-044-045-052-053-272200-
   East Central Minnesota

CITY           SKY/WX    TMP DP  RH WIND       PRES   REMARKS
PRINCETON      PTSUNNY   84  57  39 NW3       30.07F
MORA           FAIR      79  55  44 N3        30.09F
CAMBRIDGE      FAIR      81  63  54 N3        30.05F
RUSH CITY      FAIR      82  59  46 N3        30.06F
MOOSE LAKE     PTSUNNY   79  55  44 CALM      30.06S
HINCKLEY       FAIR      82  61  47 N5        30.07F
CLOQUET        FAIR      75  57  53 E6        30.09S
MCGREGOR       PTSUNNY   81  57  44 N5        30.08F
$$
MNZ071>073-080-081-089-090-097-098-272200-
   Southwest Minnesota

CITY           SKY/WX    TMP DP  RH WIND       PRES   REMARKS
MONTEVIDEO     FAIR      88  61  40 NE3       30.09F
CANBY          FAIR      83  57  41 CALM      30.10F
MARSHALL       FAIR      80  62  54 NE12      30.08F
REDWOOD FALLS  FAIR      83  59  44 NE8       30.07F
OLIVIA         FAIR      81  59  47 N5        30.08F
PIPESTONE      FAIR      81  59  47 E7        30.10F
WINDOM         FAIR      81  61  50 N9        30.09F
WORTHINGTON    FAIR      79  61  53 NE10      30.10F
JACKSON        FAIR      79  61  53 VRB3      30.09F
TRACY          FAIR      80  64  57 NE7       30.09F
SLAYTON        HVY RAIN  78  47  34 N8        30.12F
$$
MNZ065>067-074>077-082>085-091>093-272200-
   South Central Minnesota

CITY           SKY/WX    TMP DP  RH WIND       PRES   REMARKS
MANKATO        FAIR      81  61  50 N9        30.06F
NEW ULM        FAIR      82  57  42 N8        30.06F
ST JAMES       FAIR      81  63  54 N9        30.07F
FAIRMONT       FAIR      81  64  56 N10       30.07S
GLENCOE        FAIR      82  64  53 N5        30.07F
FARIBAULT      FAIR      81  63  54 NW9       30.06F
OWATONNA       FAIR      81  63  54 NE8G16    30.06F
WASECA         PTSUNNY   77  63  61 N7        30.07F
ALBERT LEA     FAIR      81  64  57 N7        30.05F
$$
MNZ078>079-086>088-094>096-272200-
   Southeast Minnesota

CITY           SKY/WX    TMP DP  RH WIND       PRES   REMARKS
ROCHESTER      PTSUNNY   78  62  57 N12       30.06S
RED WING       FAIR      84  57  39 N3        30.03S
STANTON        FAIR      83  62  49 NE5       30.04F
DODGE CENTER   FAIR      81  63  54 N8        30.06F
WINONA         FAIR      81  59  47 N5        30.02F
AUSTIN         FAIR      82  61  47 N7        30.04F
PRESTON        FAIR      80  63  56 N7        30.05F
$$
ABBREVIATIONS USED IN REMARKS
   TC - TEMPERATURES IN CELSIUS
  WCI - WIND CHILL INDEX
   HX - HEAT INDEX
  VSB - VISIBILITY
$$




USA.gov is the U.S. government's official web portal to all federal, state and local government web resources and services.